• In United Kingdom
  • List of Countries
  • For 7 days
  • Water Temperature
  • Satellite Maps
  • Weather Map
  • Weather Widgets
  • user-avatar
    Login

    Hourly Weather Sydney

    Today, 23 October, Monday

    Time Temperature Precipitation Wind Pressure Humidity
    00:00 +13°C° 0.1 mm 3 mps 761 mmHg 87%
    01:00 +12°C° 0.1 mm 3 mps 761 mmHg 88%
    02:00 +12°C° 0 mm 3 mps 761 mmHg 89%
    03:00 +12°C° 0 mm 3 mps 761 mmHg 89%
    04:00 +11°C° 0 mm 4 mps 761 mmHg 89%
    05:00 +12°C° 0 mm 4 mps 761 mmHg 85%
    06:00 +13°C° 0 mm 4 mps 762 mmHg 81%
    07:00 +14°C° 0 mm 4 mps 762 mmHg 78%
    08:00 +18°C° 0 mm 4 mps 762 mmHg 67%
    09:00 +20°C° 0 mm 4 mps 762 mmHg 56%
    10:00 +22°C° 0 mm 4 mps 762 mmHg 46%
    11:00 +23°C° 0 mm 4 mps 762 mmHg 44%
    12:00 +25°C° 0 mm 4 mps 762 mmHg 42%
    13:00 +25°C° 0 mm 4 mps 762 mmHg 40%
    14:00 +25°C° 0 mm 4 mps 761 mmHg 43%
    15:00 +23°C° 0 mm 4 mps 761 mmHg 47%
    16:00 +22°C° 0 mm 3 mps 761 mmHg 51%
    17:00 +20°C° 0 mm 3 mps 762 mmHg 60%
    18:00 +18°C° 0 mm 3 mps 762 mmHg 68%
    19:00 +17°C° 0 mm 3 mps 763 mmHg 77%
    20:00 +16°C° 0 mm 3 mps 763 mmHg 80%
    21:00 +16°C° 0 mm 3 mps 763 mmHg 84%
    22:00 +15°C° 0 mm 2 mps 763 mmHg 87%
    23:00 +14°C° 0 mm 3 mps 763 mmHg 88%

    Tomorrow, 24 October, Tuesday

    Time Temperature Precipitation Wind Pressure Humidity
    00:00 +13°C° 0 mm 3 mps 763 mmHg 89%
    01:00 +13°C° 0 mm 3 mps 763 mmHg 91%
    02:00 +13°C° 0 mm 3 mps 763 mmHg 91%
    03:00 +12°C° 0 mm 3 mps 763 mmHg 91%
    04:00 +12°C° 0 mm 3 mps 763 mmHg 91%
    05:00 +14°C° 0 mm 3 mps 763 mmHg 83%
    06:00 +16°C° 0 mm 3 mps 763 mmHg 75%
    07:00 +18°C° 0 mm 3 mps 763 mmHg 67%
    08:00 +21°C° 0 mm 3 mps 763 mmHg 56%
    09:00 +25°C° 0 mm 3 mps 763 mmHg 45%
    10:00 +28°C° 0 mm 3 mps 762 mmHg 34%
    11:00 +30°C° 0 mm 3 mps 762 mmHg 30%
    12:00 +32°C° 0 mm 4 mps 761 mmHg 27%
    13:00 +33°C° 0 mm 4 mps 761 mmHg 24%
    14:00 +32°C° 0 mm 5 mps 760 mmHg 26%
    15:00 +32°C° 0 mm 5 mps 760 mmHg 29%
    16:00 +30°C° 0 mm 6 mps 759 mmHg 31%
    17:00 +27°C° 0 mm 6 mps 759 mmHg 41%
    18:00 +25°C° 0 mm 5 mps 760 mmHg 51%
    19:00 +21°C° 0 mm 5 mps 760 mmHg 61%
    20:00 +21°C° 0 mm 5 mps 760 mmHg 65%
    21:00 +20°C° 0 mm 4 mps 760 mmHg 69%
    22:00 +19°C° 0 mm 4 mps 761 mmHg 72%
    23:00 +18°C° 0 mm 4 mps 760 mmHg 72%

    Day after tomorrow, 25 October, Wednesday

    Time Temperature Precipitation Wind Pressure Humidity
    00:00 +18°C° 0 mm 3 mps 760 mmHg 71%
    01:00 +18°C° 0 mm 3 mps 759 mmHg 71%
    02:00 +18°C° 0 mm 3 mps 759 mmHg 68%
    03:00 +18°C° 0 mm 2 mps 759 mmHg 66%
    04:00 +18°C° 0 mm 2 mps 758 mmHg 63%
    05:00 +19°C° 0 mm 2 mps 758 mmHg 58%
    06:00 +21°C° 0 mm 2 mps 758 mmHg 53%
    07:00 +23°C° 0 mm 1 mps 759 mmHg 48%
    08:00 +26°C° 0 mm 2 mps 758 mmHg 39%
    09:00 +29°C° 0 mm 2 mps 758 mmHg 30%
    10:00 +33°C° 0 mm 3 mps 758 mmHg 21%
    11:00 +33°C° 0 mm 3 mps 758 mmHg 22%
    12:00 +33°C° 0 mm 4 mps 757 mmHg 22%
    13:00 +33°C° 0 mm 4 mps 756 mmHg 22%
    14:00 +33°C° 0 mm 4 mps 756 mmHg 25%
    15:00 +31°C° 0 mm 3 mps 755 mmHg 28%
    16:00 +30°C° 0 mm 3 mps 755 mmHg 32%
    17:00 +28°C° 0.1 mm 3 mps 755 mmHg 39%
    18:00 +26°C° 0.1 mm 3 mps 755 mmHg 46%
    19:00 +24°C° 0.1 mm 3 mps 755 mmHg 53%
    20:00 +22°C° 0.1 mm 3 mps 755 mmHg 58%
    21:00 +21°C° 0.1 mm 3 mps 755 mmHg 64%
    22:00 +20°C° 0.1 mm 3 mps 754 mmHg 70%
    23:00 +20°C° 0 mm 3 mps 754 mmHg 71%

    26 October, Thursday

    Time Temperature Precipitation Wind Pressure Humidity
    00:00 +19°C° 0 mm 3 mps 753 mmHg 72%
    01:00 +19°C° 0 mm 3 mps 752 mmHg 73%
    02:00 +19°C° 0 mm 3 mps 752 mmHg 75%
    03:00 +18°C° 0 mm 3 mps 751 mmHg 77%
    04:00 +17°C° 0 mm 3 mps 751 mmHg 79%
    05:00 +19°C° 0 mm 4 mps 751 mmHg 76%
    06:00 +20°C° 0 mm 4 mps 751 mmHg 72%
    07:00 +21°C° 0 mm 5 mps 752 mmHg 68%
    08:00 +23°C° 0 mm 5 mps 752 mmHg 60%
    09:00 +26°C° 0 mm 5 mps 752 mmHg 52%
    10:00 +28°C° 0 mm 6 mps 753 mmHg 45%
    11:00 +28°C° 0 mm 6 mps 752 mmHg 45%
    12:00 +28°C° 0 mm 6 mps 752 mmHg 45%
    13:00 +28°C° 0 mm 6 mps 752 mmHg 45%
    14:00 +26°C° 0.2 mm 6 mps 752 mmHg 52%
    15:00 +24°C° 0.2 mm 6 mps 752 mmHg 59%
    16:00 +22°C° 0.2 mm 7 mps 752 mmHg 66%
    17:00 +21°C° 0.3 mm 7 mps 753 mmHg 72%
    18:00 +20°C° 0.3 mm 6 mps 754 mmHg 77%
    19:00 +19°C° 0.3 mm 6 mps 755 mmHg 82%
    20:00 +17°C° 0 mm 6 mps 756 mmHg 83%
    21:00 +17°C° 0 mm 6 mps 756 mmHg 84%
    22:00 +16°C° 0 mm 6 mps 757 mmHg 85%
    23:00 +16°C° 0.2 mm 6 mps 757 mmHg 85%

    27 October, Friday

    Time Temperature Precipitation Wind Pressure Humidity
    00:00 +16°C° 0.2 mm 6 mps 757 mmHg 84%
    01:00 +16°C° 0.2 mm 6 mps 757 mmHg 84%
    02:00 +16°C° 0.1 mm 5 mps 757 mmHg 85%
    03:00 +16°C° 0.1 mm 5 mps 757 mmHg 86%
    04:00 +15°C° 0.1 mm 5 mps 757 mmHg 87%
    05:00 +16°C° 0 mm 5 mps 758 mmHg 83%
    06:00 +17°C° 0 mm 5 mps 759 mmHg 79%
    07:00 +19°C° 0 mm 5 mps 759 mmHg 75%
    08:00 +20°C° 0 mm 4 mps 759 mmHg 65%
    09:00 +22°C° 0 mm 4 mps 760 mmHg 56%
    10:00 +25°C° 0 mm 4 mps 760 mmHg 47%
    11:00 +25°C° 0 mm 4 mps 759 mmHg 44%
    12:00 +26°C° 0 mm 4 mps 759 mmHg 40%
    13:00 +27°C° 0 mm 4 mps 759 mmHg 37%
    14:00 +26°C° 0 mm 4 mps 759 mmHg 39%
    15:00 +26°C° 0 mm 4 mps 758 mmHg 41%
    16:00 +25°C° 0 mm 4 mps 758 mmHg 43%
    17:00 +22°C° 0 mm 4 mps 758 mmHg 51%
    18:00 +20°C° 0 mm 3 mps 758 mmHg 59%
    19:00 +18°C° 0 mm 3 mps 759 mmHg 68%
    20:00 +18°C° 0 mm 3 mps 759 mmHg 73%
    21:00 +17°C° 0 mm 3 mps 759 mmHg 79%
    22:00 +16°C° 0 mm 3 mps 759 mmHg 84%
    23:00 +16°C° 0 mm 3 mps 759 mmHg 86%

    28 October, Saturday

    Time Temperature Precipitation Wind Pressure Humidity
    00:00 +16°C° 0 mm 3 mps 759 mmHg 89%
    01:00 +16°C° 0 mm 3 mps 759 mmHg 91%
    02:00 +15°C° 0 mm 4 mps 758 mmHg 92%
    03:00 +14°C° 0 mm 4 mps 758 mmHg 93%
    04:00 +14°C° 0 mm 4 mps 758 mmHg 95%
    05:00 +17°C° 0 mm 4 mps 758 mmHg 89%
    06:00 +18°C° 0 mm 4 mps 758 mmHg 84%
    07:00 +19°C° 0 mm 4 mps 758 mmHg 78%
    08:00 +22°C° 0 mm 4 mps 758 mmHg 65%
    09:00 +27°C° 0 mm 4 mps 758 mmHg 51%
    10:00 +30°C° 0 mm 3 mps 758 mmHg 38%
    11:00 +32°C° 0 mm 4 mps 757 mmHg 34%
    12:00 +33°C° 0 mm 4 mps 757 mmHg 30%
    13:00 +35°C° 0 mm 4 mps 756 mmHg 26%
    14:00 +33°C° 0 mm 4 mps 756 mmHg 32%
    15:00 +32°C° 0 mm 4 mps 756 mmHg 37%
    16:00 +29°C° 0 mm 4 mps 756 mmHg 43%
    17:00 +28°C° 0 mm 4 mps 756 mmHg 50%
    18:00 +26°C° 0 mm 4 mps 756 mmHg 57%
    19:00 +23°C° 0 mm 4 mps 757 mmHg 64%
    20:00 +23°C° 0 mm 4 mps 757 mmHg 65%
    21:00 +22°C° 0 mm 4 mps 757 mmHg 66%
    22:00 +21°C° 0 mm 4 mps 757 mmHg 68%
    23:00 +21°C° 0 mm 4 mps 756 mmHg 64%

    29 October, Sunday

    Time Temperature Precipitation Wind Pressure Humidity
    00:00 +21°C° 0 mm 4 mps 756 mmHg 60%
    01:00 +20°C° 0 mm 3 mps 756 mmHg 57%
    02:00 +20°C° 0 mm 3 mps 756 mmHg 57%
    03:00 +20°C° 0 mm 2 mps 756 mmHg 57%
    04:00 +20°C° 0 mm 2 mps 756 mmHg 57%
    05:00 +21°C° 0.3 mm 2 mps 757 mmHg 57%
    06:00 +23°C° 0.3 mm 2 mps 757 mmHg 57%
    07:00 +24°C° 0.3 mm 1 mps 758 mmHg 57%
    08:00 +27°C° 0 mm 2 mps 757 mmHg 49%
    09:00 +30°C° 0 mm 2 mps 757 mmHg 40%
    10:00 +34°C° 0 mm 2 mps 757 mmHg 31%
    11:00 +34°C° 0 mm 3 mps 756 mmHg 31%
    12:00 +34°C° 0 mm 3 mps 756 mmHg 30%
    13:00 +34°C° 0 mm 4 mps 755 mmHg 29%
    14:00 +33°C° 0 mm 4 mps 755 mmHg 32%
    15:00 +33°C° 0 mm 4 mps 755 mmHg 34%
    16:00 +32°C° 0 mm 5 mps 754 mmHg 37%
    17:00 +28°C° 0 mm 4 mps 754 mmHg 46%
    18:00 +26°C° 0 mm 4 mps 754 mmHg 56%
    19:00 +23°C° 0 mm 4 mps 755 mmHg 65%
    20:00 +22°C° 0 mm 4 mps 755 mmHg 68%
    21:00 +22°C° 0 mm 3 mps 755 mmHg 71%
    22:00 +21°C° 0 mm 3 mps 755 mmHg 74%
    23:00 +21°C° 0 mm 3 mps 755 mmHg 72%
    Show more